Location: Nitra
(0.0000°N, 18.0833°E)
Time: 18:25:16
(UTC+02:00)

Transit 2A Rocket - All Passes

Search period start: 31 March 2023 00:00
Search period end: 10 April 2023 00:00
Orbit: 583 x 916 km, 66.7° (Epoch: 30 March)

Date Brightness Start Highest point End Pass type
(mag) Time Alt. Az. Time Alt. Az. Time Alt. Az.
31 Mar - 09:10:55 10° SSW 09:15:42 89° WNW 09:20:59 10° NNE daylight
31 Mar - 20:00:47 10° NNE 20:04:15 17° ENE 20:07:32 10° ESE visible
31 Mar - 21:41:49 10° NW 21:46:37 31° WSW 21:51:04 10° S visible
01 Apr - 08:28:07 10° S 08:32:35 40° ESE 08:37:27 10° NE daylight
01 Apr - 10:13:21 10° W 10:15:02 12° WNW 10:16:45 10° NW daylight
01 Apr - 20:58:01 10° NNW 21:03:31 69° WSW 21:08:31 10° SSE visible
02 Apr - 07:46:16 10° SSE 07:49:31 18° ESE 07:52:56 10° ENE daylight
02 Apr - 09:27:41 10° SW 09:31:42 25° WNW 09:36:03 10° NNW daylight
02 Apr - 20:14:56 10° N 20:20:21 54° ENE 20:25:17 10° SSE visible
03 Apr - 08:43:44 10° SSW 08:48:28 56° WNW 08:53:41 10° N daylight
03 Apr - 19:32:36 10° NNE 19:37:05 25° ENE 19:41:16 10° ESE visible
03 Apr - 21:15:26 10° WNW 21:19:20 20° WSW 21:22:59 10° SSW visible
04 Apr - 08:00:32 10° S 08:05:18 64° ESE 08:10:33 10° NNE daylight
04 Apr - 18:51:55 10° NE 18:53:45 12° ENE 18:55:34 10° E daylight
04 Apr - 20:31:04 10° NW 20:36:14 44° WSW 20:40:58 10° S visible
05 Apr - 07:18:04 10° SSE 07:22:12 28° ESE 07:26:39 10° NE daylight
05 Apr - 09:01:22 10° WSW 09:04:32 17° WNW 09:07:52 10° NNW daylight
05 Apr - 19:47:35 10° NNW 19:53:06 85° ENE 19:58:06 10° SSE visible
06 Apr - 06:37:00 10° SE 06:39:06 13° ESE 06:41:17 10° E daylight
06 Apr - 08:16:45 10° SW 08:21:14 36° WNW 08:26:07 10° N daylight
06 Apr - 19:04:48 10° N 19:09:53 38° ENE 19:14:33 10° SE visible
06 Apr - 20:49:48 10° W 20:52:01 13° WSW 20:54:10 10° SW visible
07 Apr - 07:33:09 10° SSW 07:38:01 81° WNW 07:43:23 10° NNE daylight
07 Apr - 18:22:56 10° NNE 18:26:35 18° ENE 18:30:03 10° ESE daylight
07 Apr - 20:04:23 10° NW 20:08:55 28° WSW 20:13:08 10° SSW visible
08 Apr - 06:50:15 10° S 06:54:52 45° ESE 06:59:56 10° NE daylight
08 Apr - 08:36:21 10° WNW 08:37:21 11° WNW 08:38:23 10° NW daylight
08 Apr - 19:20:27 10° NNW 19:25:49 62° WSW 19:30:42 10° S visible
09 Apr - 06:08:11 10° SSE 06:11:47 20° ESE 06:15:36 10° ENE visible
09 Apr - 07:50:03 10° WSW 07:54:01 24° WNW 07:58:16 10° NNW daylight
09 Apr - 18:37:16 10° N 18:42:38 60° ENE 18:47:32 10° SSE daylight
